Date String (YYYY-MM-DD hh:mm:ss) UTC,Instrument flags,Ambient pressure (hPa),Sample flow (lpm),Bypass flow (lpm),Sample temperature (°C),Ambient temperature (°C),ASC tube jacket temperature (°C),LED temperature (°C),Box temperature (°C),Sample RH (%),Span deviation,Mass concentration (μg/m³),Mass concentration (μg/m³),Mass concentration (μg/m³)
DateTimeUTC,F1_M11,P_M11,Q1_M11,Q2_M11,T1_M11,T2_M11,T3_M11,T4_M11,T5_M11,U1_M11,ZSPAN_M11,X0_M11,X2_M11,X1_M11
2022-06-06 12:00:00,,0822.3,5.00,0.00,30.3,29.2,00.0,39.3,32.1,21.5,0000.0,0010.64,0003.92,0002.51
2022-06-06 12:01:00,,0822.3,4.99,0.00,30.3,29.2,00.0,39.3,32.1,21.3,0000.0,0010.55,0003.90,0002.50
2022-06-06 12:02:00,,0822.4,5.01,0.00,30.3,29.2,00.0,39.3,32.1,21.1,0000.0,0009.98,0003.88,0002.48
2022-06-06 12:03:00,,0822.4,5.01,0.00,30.3,29.2,00.0,39.3,32.1,21.1,0000.0,0009.55,0003.92,0002.47
2022-06-06 12:04:00,,0822.3,4.99,0.00,30.3,29.2,00.0,39.3,32.1,21.1,0000.0,0009.38,0003.89,0002.45
2022-06-06 12:05:00,,0822.3,5.01,0.00,30.3,29.2,00.0,39.3,32.1,21.0,0000.0,0008.81,0003.86,0002.42
2022-06-06 12:06:00,,0822.4,5.00,0.00,30.3,29.2,00.0,39.3,32.1,21.0,0000.0,0008.44,0003.84,0002.40
2022-06-06 12:07:00,,0822.3,4.99,0.00,30.4,29.2,00.0,39.3,32.1,20.9,0000.0,0008.17,0003.79,0002.36
2022-06-06 12:08:00,,0822.3,4.99,0.00,30.3,29.3,00.0,39.3,32.2,20.9,0000.0,0008.16,0003.78,0002.34
2022-06-06 12:09:00,,0822.3,5.02,0.00,30.3,29.3,00.0,39.3,32.2,20.8,0000.0,0008.15,0003.80,0002.33
2022-06-06 12:10:00,,0822.3,4.99,0.00,30.3,29.3,00.0,39.3,32.2,20.8,0000.0,0008.22,0003.78,0002.29
2022-06-06 12:11:00,,0822.3,4.99,0.00,30.4,29.3,00.0,39.3,32.2,20.8,0000.0,0008.16,0003.74,0002.24
2022-06-06 12:12:00,,0822.3,5.01,0.00,30.4,29.3,00.0,39.3,32.2,20.8,0000.0,0008.08,0003.69,0002.21
2022-06-06 12:13:00,,0822.3,5.01,0.00,30.4,29.3,00.0,39.3,32.2,20.8,0000.0,0008.05,0003.70,0002.20
2022-06-06 12:14:00,,0822.4,5.00,0.00,30.4,29.3,00.0,39.3,32.2,20.8,0000.0,0007.93,0003.68,0002.18
2022-06-06 12:15:00,,0822.5,4.99,0.00,30.4,29.3,00.0,39.3,32.2,20.8,0000.0,0007.88,0003.66,0002.15
2022-06-06 12:16:00,,0822.5,5.01,0.00,30.4,29.3,00.0,39.3,32.2,20.8,0000.0,0008.04,0003.68,0002.14
2022-06-06 12:17:00,,0822.5,5.00,0.00,30.4,29.3,00.0,39.3,32.2,20.8,0000.0,0008.09,0003.68,0002.13
2022-06-06 12:18:00,,0822.5,4.99,0.00,30.4,29.3,00.0,39.3,32.2,20.7,0000.0,0008.03,0003.66,0002.12
2022-06-06 12:19:00,,0822.5,5.00,0.00,30.4,29.3,00.0,39.3,32.2,20.7,0000.0,0008.13,0003.71,0002.12
2022-06-06 12:20:00,,0822.5,5.00,0.00,30.4,29.3,00.0,39.3,32.2,20.7,0000.0,0008.06,0003.72,0002.11
2022-06-06 12:21:00,,0822.5,5.01,0.00,30.4,29.4,00.0,39.3,32.2,20.5,0000.0,0008.25,0003.69,0002.11
2022-06-06 12:22:00,,0822.4,4.99,0.00,30.4,29.4,00.0,39.3,32.2,20.6,0000.0,0009.02,0003.68,0002.11
2022-06-06 12:23:00,,0822.3,5.00,0.00,30.4,29.4,00.0,39.3,32.2,20.6,0000.0,0009.30,0003.71,0002.11
2022-06-06 12:24:00,,0822.4,5.00,0.00,30.4,29.4,00.0,39.3,32.2,20.7,0000.0,0009.39,0003.70,0002.09
2022-06-06 12:25:00,,0822.5,5.00,0.00,30.4,29.4,00.0,39.3,32.2,20.7,0000.0,0009.37,0003.68,0002.09
2022-06-06 12:26:00,,0822.5,5.01,0.00,30.4,29.4,00.0,39.3,32.2,20.8,0000.0,0009.39,0003.65,0002.08
2022-06-06 12:27:00,,0822.5,5.01,0.00,30.4,29.4,00.0,39.3,32.2,20.8,0000.0,0009.48,0003.66,0002.05
2022-06-06 12:28:00,,0822.6,4.99,0.00,30.4,29.3,00.0,39.3,32.2,20.8,0000.0,0009.74,0003.74,0002.06
2022-06-06 12:29:00,,0822.5,5.01,0.00,30.4,29.3,00.0,39.3,32.2,20.7,0000.0,0010.04,0003.79,0002.07
2022-06-06 12:30:00,,0822.5,5.00,0.00,30.4,29.3,00.0,39.3,32.2,20.6,0000.0,0010.01,0003.78,0002.07
2022-06-06 12:31:00,,0822.5,4.99,0.00,30.4,29.3,00.0,39.3,32.2,20.5,0000.0,0009.92,0003.72,0002.06
2022-06-06 12:32:00,,0822.5,5.01,0.00,30.4,29.3,00.0,39.3,32.2,20.6,0000.0,0009.68,0003.74,0002.07
2022-06-06 12:33:00,,0822.5,5.00,0.00,30.4,29.3,00.0,39.3,32.2,20.6,0000.0,0008.86,0003.75,0002.08
2022-06-06 12:34:00,,0822.5,4.99,0.00,30.4,29.4,00.0,39.3,32.3,20.7,0000.0,0008.75,0003.79,0002.09
2022-06-06 12:35:00,,0822.5,5.00,0.00,30.4,29.4,00.0,39.3,32.3,20.6,0000.0,0008.84,0003.83,0002.11
2022-06-06 12:36:00,,0822.5,5.01,0.00,30.4,29.4,00.0,39.3,32.3,20.7,0000.0,0008.97,0003.91,0002.11
2022-06-06 12:37:00,,0822.6,4.99,0.00,30.4,29.4,00.0,39.3,32.3,20.9,0000.0,0008.99,0003.93,0002.14
2022-06-06 12:38:00,,0822.6,5.01,0.00,30.5,29.4,00.0,39.3,32.3,20.8,0000.0,0008.92,0003.91,0002.17
2022-06-06 12:39:00,,0822.6,5.00,0.00,30.5,29.4,00.0,39.3,32.3,20.7,0000.0,0008.81,0003.88,0002.19
2022-06-06 12:40:00,,0822.7,5.00,0.00,30.5,29.4,00.0,39.4,32.3,20.8,0000.0,0008.83,0003.93,0002.20
2022-06-06 12:41:00,,0822.7,5.00,0.00,30.5,29.4,00.0,39.4,32.3,20.8,0000.0,0008.98,0003.95,0002.20
2022-06-06 12:42:00,,0822.7,5.00,0.00,30.5,29.4,00.0,39.4,32.3,20.7,0000.0,0009.11,0003.96,0002.21
2022-06-06 12:43:00,,0822.7,5.00,0.00,30.5,29.4,00.0,39.4,32.3,21.2,0000.0,0009.83,0003.99,0002.23
2022-06-06 12:44:00,,0822.7,4.99,0.00,30.5,29.4,00.0,39.4,32.3,21.7,0000.0,0009.85,0004.00,0002.24
2022-06-06 12:45:00,,0822.7,5.01,0.00,30.5,29.4,00.0,39.4,32.3,22.3,0000.0,0009.97,0004.03,0002.25
2022-06-06 12:46:00,,0822.8,5.00,0.00,30.5,29.4,00.0,39.4,32.3,21.9,0000.0,0009.85,0004.01,0002.26
2022-06-06 12:47:00,,0822.7,5.00,0.00,30.5,29.4,00.0,39.4,32.3,21.5,0000.0,0009.72,0003.96,0002.27
2022-06-06 12:48:00,,0822.6,5.00,0.00,30.5,29.4,00.0,39.4,32.3,21.6,0000.0,0009.68,0003.94,0002.26
2022-06-06 12:49:00,,0822.7,5.01,0.00,30.5,29.4,00.0,39.4,32.3,21.3,0000.0,0009.75,0003.91,0002.24
2022-06-06 12:50:00,,0822.6,4.99,0.00,30.5,29.4,00.0,39.4,32.3,21.0,0000.0,0009.85,0003.91,0002.24
2022-06-06 12:51:00,,0822.7,4.99,0.00,30.5,29.4,00.0,39.4,32.3,20.9,0000.0,0009.75,0003.87,0002.23
2022-06-06 12:52:00,,0822.6,5.01,0.00,30.5,29.4,00.0,39.4,32.3,20.9,0000.0,0009.54,0003.84,0002.24
2022-06-06 12:53:00,,0822.6,4.98,0.00,30.5,29.4,00.0,39.4,32.3,20.9,0000.0,0009.44,0003.85,0002.25
2022-06-06 12:54:00,,0822.6,4.99,0.00,30.5,29.5,00.0,39.4,32.3,20.8,0000.0,0008.90,0003.86,0002.25
2022-06-06 12:55:00,,0822.6,5.01,0.00,30.5,29.5,00.0,39.4,32.3,20.9,0000.0,0008.90,0003.89,0002.25
2022-06-06 12:56:00,,0822.6,5.00,0.00,30.5,29.5,00.0,39.4,32.3,21.2,0000.0,0008.78,0003.85,0002.26
2022-06-06 12:57:00,,0822.7,4.99,0.00,30.5,29.5,00.0,39.4,32.3,21.3,0000.0,0008.68,0003.83,0002.25
2022-06-06 12:58:00,,0822.7,4.99,0.00,30.5,29.5,00.0,39.4,32.3,22.0,0000.0,0008.77,0003.86,0002.25
2022-06-06 12:59:00,,0822.8,5.02,0.00,30.5,29.5,00.0,39.4,32.3,23.1,0000.0,0008.92,0003.90,0002.27
